Location: Conflandey
(47.7287°N, 6.0456°E)
Time: 20:52:52
(UTC+00:00)

DMSP B5D1-3 - Pass Details

Date: 24 October 2021
Orbit: 767 x 780 km, 98.5° (Epoch: 05 December)

Event Time Altitude Azimuth Distance (km) Brightness Sun altitude
Rises 18:22:30 0° 16° (NNE) 3,268 7.6 -19.4°
Reaches altitude 10° 18:24:50 10° 19° (NNE) 2,337 6.8 -19.7°
Maximum altitude 18:29:58 66° 102° (ESE) 849 4.4 -20.6°
Drops below altitude 10° 18:35:05 10° 185° (S) 2,326 7.0 -21.5°
Sets 18:37:24 0° 188° (S) 3,250 7.8 -21.9°
